Regional Weather Roundup
Issued by NWS

Home | Current Version | Previous Version | Graphics & Text | Print | Product List | Glossary On
Versions: 1 2 3 4 5 6 7 8 9 10 11 12 13 14 15 16 17 18 19 20 21 22 23 24 25 26 27 28 29 30 31 32 33 34 35 36 37 38 39 40 41 42 43 44 45 46 47 48 49 50
365
ASUS44 KMEG 171800
RWRTN
TENNESSEE HOURLY STATE WEATHER ROUNDUP
NATIONAL WEATHER SERVICE MEMPHIS TN
1200 PM CST TUE JAN 17 2017

TNZ002-004-019-021-049-052-054-088>092-171900-
WEST TENNESSEE

CITY           SKY/WX    TMP DP  RH WIND       PRES   REMARKS
MEMPHIS INTL   CLOUDY    57  47  69 SW6       30.09F
NWS MEMPHIS      N/A     55 N/A N/A MISG        N/A
JACKSON        CLOUDY    55  50  83 SW9       30.08F
DYERSBURG      CLOUDY    52  45  76 W13       30.08F
UNION CITY     SUNNY     52  50  93 SW9       30.05F
PARIS          MOSUNNY   52  46  82 SW13      30.05F
$$

TNZ008-025-027-028-033-062-065-066-171900-
NORTH MIDDLE TENNESSEE

CITY           SKY/WX    TMP DP  RH WIND       PRES   REMARKS
NASHVILLE      CLOUDY    63  57  81 W9        30.06S
CLARKSVILLE    PTSUNNY   58  47  66 SW13      30.02F
SMYRNA         CLOUDY    64  60  87 SW13      30.06S
CROSSVILLE     CLOUDY    59  57  93 VRB6      30.07F
$$

TNZ061-075-076-078-094-096-097-171900-
SOUTH MIDDLE TENNESSEE

CITY           SKY/WX    TMP DP  RH WIND       PRES   REMARKS
TULLAHOMA      CLOUDY    63  61  94 SW15      30.08F
WINCHESTER     CLOUDY    64  61  88 S14       30.09F
MCMINNVILLE    CLOUDY    64  64 100 SW12      30.05F
COLUMBIA       CLOUDY   N/A N/A N/A W7        30.05S
SHELBYVILLE    CLOUDY    64  64 100 S7        30.06F
$$

TNZ017-018-042-046-047-171900-
NORTHEAST TENNESSEE

CITY           SKY/WX    TMP DP  RH WIND       PRES   REMARKS
TRI CITIES     CLOUDY    57  54  89 CALM      30.09F
$$

TNZ012-013-036-069-073-074-171900-
CENTRAL EAST TENNESSEE

CITY           SKY/WX    TMP DP  RH WIND       PRES   REMARKS
KNOXVILLE      LGT RAIN  62  56  80 SW12      30.07F
OAK RIDGE      LGT RAIN  58  56  93 CALM      30.09F VSB 3/4
GATLINBURG     CLOUDY    59  57  94 CALM      30.07F
$$

TNZ083-085-099-171900-
SOUTHEAST TENNESSEE

CITY           SKY/WX    TMP DP  RH WIND       PRES   REMARKS
CHATTANOOGA    CLOUDY    65  57  75 S9        30.11F
$$

SKY/WX REPORTED AS FAIR MEANS FEW OR NO CLOUDS BELOW
12 THOUSAND FEET.





USA.gov is the U.S. government's official web portal to all federal, state and local government web resources and services.